Flag for Canada Weather past 2 weeks in Niagara Falls, Ontario, Canada

42 °F


Feels Like: 42 °F
Forecast: 44 / 58 °F
Wind: No wind

Location: Niagara Falls International Airport

Current Time: Oct 10, 2015 at 3:05:05 AM

Latest Report: Oct 10, 2015 at 1:53 AM

Visibility: 10 mi

Pressure: 30.14 "Hg

Humidity: 89%

Dew point: 39 °F

Location of Niagara FallsLocation

Historic Weather in Niagara Falls — Graph


Niagara Falls temperature yesterday

Maximum temperature yesterday: 63 °F (at 11:53 AM)
Minimum temperature yesterday: 46 °F (at 11:53 PM)
Average temperature yesterday: 57 °F

Past Weeks' High & Low Weather Summary

High75 °F (Sep 27, 2:53 PM)97% (Sep 28, 11:53 PM)30.44 "Hg (Sep 28, 11:53 PM)
Low41 °F (Oct 10, 12:53 AM)43% (Sep 27, 2:53 PM)29.78 "Hg (Oct 9, 7:01 AM)
Average57 °F77%30.18 "Hg
* Reported Sep 25 1:53 AM — Oct 10 1:53 AM, Niagara Falls, Weather by CustomWeather, © 2015

Note: Actual official high and low records may vary slightly from our data, if they occured in-between our weather recording intervals... More about our weather records


Niagara Falls weather history for previous 24 hours

Time TempWeatherWind HumidityBarometerVisibility
1:53 AM
Sat, Oct 10
42 °FClear.No wind89%30.14 "Hg10 mi
12:53 AM41 °FClear.3 mph93%30.14 "Hg9 mi
11:53 PM
Fri, Oct 9
46 °FClear.No wind83%30.13 "Hg10 mi
10:53 PM49 °FPassing clouds.5 mph77%30.11 "Hg10 mi
9:53 PM49 °FPassing clouds.7 mph77%30.10 "Hg10 mi
8:53 PM52 °FPassing clouds.9 mph69%30.08 "Hg10 mi
7:53 PM53 °FMostly cloudy.10 mph69%30.05 "Hg10 mi
6:53 PM54 °FMore clouds than sun.16 mph69%30.02 "Hg10 mi
5:53 PM54 °FPartly sunny.17 mph72%29.98 "Hg10 mi
4:53 PM56 °FMostly cloudy.22 mph72%29.95 "Hg10 mi
3:53 PM58 °FOvercast.17 mph72%29.90 "Hg10 mi
2:53 PM59 °FCloudy.18 mph72%29.88 "Hg10 mi
1:53 PM62 °FCloudy.23 mph70%29.86 "Hg10 mi
12:53 PM63 °FMostly cloudy.20 mph75%29.84 "Hg7 mi
12:02 PM63 °FMostly cloudy.12 mph78%29.83 "Hg7 mi
11:53 AM63 °FCloudy.16 mph78%29.83 "Hg7 mi
10:53 AM62 °FFog.14 mph83%29.83 "Hg6 mi
9:53 AM62 °FFog.12 mph86%29.82 "Hg5 mi
8:53 AM62 °FFog.14 mph90%29.81 "Hg5 mi
7:53 AM62 °FFog.14 mph93%29.79 "Hg5 mi
7:01 AM61 °FLight rain. Fog.10 mph93%29.78 "Hg5 mi
5:53 AM59 °FFog.9 mph93%29.79 "Hg6 mi
4:53 AM58 °FLight rain. Fog.10 mph97%29.79 "Hg6 mi
3:53 AM55 °FLight rain. Fog.No wind96%29.80 "Hg3 mi
Weather by CustomWeather, © 2015

See weather overviewHow to use our weather pages